QPF
0.15 0.14 0.13 0.14 0.13 0.11 0.10 0.11 0.10 0.09 0.07 0.04 0.03 0.03 0.03 0.03 0.03 0.03 0.04 0.04 0.04 0.03 0.04 0.04 0.05 0.05 0.04 0.03 0.02 0.02 0.01 0.01 0.02 0.03 0.03 0.03 0.04 0.05 0.04 0.02 0.05 0.04 0.04
0.07 0.09 0.10 0.11 0.13 0.14 0.11 0.11 0.12 0.08 0.06 0.04 0.04 0.04 0.04 0.04 0.04 0.05 0.03 0.03 0.03 0.03 0.04 0.04 0.05 0.04 0.03 0.02 0.02 0.03 0.02 0.01 0.02 0.02 0.02 0.03 0.03 0.03 0.04 0.03 0.05 0.04 0.05
0.09 0.10 0.09 0.14 0.16 0.13 0.11 0.09 0.11 0.11 0.07 0.06 0.06 0.05 0.05 0.05 0.04 0.04 0.03 0.03 0.05 0.05 0.05 0.04 0.02 0.02 0.01 0.01 0.01 0.02 0.02 0.02 0.02 0.03 0.04 0.03 0.03 0.03 0.03 0.03 0.04 0.05 0.06
0.13 0.09 0.08 0.11 0.14 0.11 0.08 0.08 0.09 0.09 0.08 0.08 0.07 0.06 0.06 0.05 0.05 0.06 0.06 0.07 0.08 0.10 0.08 0.04 0.02 0.01 0.01 0.01 0.01 0.01 0.02 0.02 0.02 0.04 0.05 0.04 0.03 0.02 0.03 0.04 0.04 0.03 0.04
0.11 0.08 0.06 0.06 0.10 0.12 0.09 0.09 0.09 0.08 0.08 0.09 0.10 0.08 0.07 0.07 0.07 0.07 0.07 0.08 0.08 0.07 0.05 0.04 0.02 0.01 0.01 0.01 0.01 0.01 0.01 0.02 0.03 0.03 0.04 0.05 0.04 0.03 0.03 0.04 0.04 0.05 0.05
0.08 0.05 0.03 0.04 0.07 0.10 0.14 0.16 0.13 0.09 0.09 0.10 0.12 0.12 0.13 0.14 0.13 0.12 0.11 0.10 0.10 0.09 0.07 0.06 0.03 0.02 0.02 0.01 0.01 0.01 0.01 0.01 0.02 0.02 0.04 0.05 0.04 0.03 0.03 0.03 0.04 0.03 0.02
0.04 0.04 0.04 0.03 0.05 0.08 0.12 0.13 0.09 0.09 0.08 0.07 0.07 0.11 0.15 0.14 0.13 0.13 0.11 0.11 0.10 0.08 0.07 0.05 0.03 0.03 0.02 0.01 0.01 0.01 0.01 0.01 0.01 0.02 0.03 0.03 0.04 0.04 0.03 0.03 0.02 0.02 0.03
0.05 0.04 0.05 0.05 0.07 0.08 0.08 0.09 0.08 0.06 0.05 0.04 0.04 0.06 0.07 0.08 0.07 0.08 0.07 0.06 0.06 0.05 0.05 0.04 0.02 0.02 0.02 0.02 0.01 0.01 0.01 0.01 0.02 0.02 0.03 0.03 0.03 0.04 0.04 0.03 0.02 0.02 0.03
0.05 0.03 0.06 0.07 0.05 0.05 0.05 0.06 0.06 0.06 0.05 0.04 0.04 0.04 0.04 0.05 0.07 0.07 0.07 0.06 0.05 0.05 0.05 0.05 0.03 0.02 0.02 0.02 0.01 0.01 0.01 0.02 0.03 0.03 0.04 0.04 0.04 0.04 0.04 0.03 0.03 0.03 0.03
0.06 0.04 0.04 0.05 0.03 0.03 0.04 0.03 0.04 0.04 0.05 0.05 0.05 0.04 0.04 0.05 0.07 0.09 0.11 0.09 0.07 0.06 0.05 0.05 0.03 0.02 0.02 0.02 0.02 0.02 0.01 0.02 0.02 0.03 0.03 0.03 0.04 0.04 0.04 0.04 0.04 0.04 0.04
0.06 0.05 0.05 0.04 0.03 0.03 0.03 0.03 0.02 0.03 0.04 0.04 0.05 0.06 0.06 0.06 0.07 0.07 0.10 0.10 0.08 0.05 0.04 0.03 0.02 0.02 0.02 0.02 0.02 0.01 0.01 0.01 0.02 0.03 0.03 0.04 0.04 0.04 0.03 0.03 0.03 0.03 0.03
0.04 0.04 0.04 0.04 0.03 0.02 0.02 0.03 0.03 0.04 0.04 0.04 0.05 0.05 0.06 0.07 0.06 0.05 0.06 0.08 0.08 0.06 0.05 0.03 0.02 0.02 0.02 0.02 0.02 0.01 0.01 0.01 0.02 0.03 0.03 0.03 0.03 0.04 0.04 0.04 0.03 0.03 0.03
0.04 0.05 0.06 0.04 0.03 0.02 0.02 0.02 0.03 0.04 0.04 0.04 0.03 0.03 0.02 0.02 0.03 0.04 0.05 0.05 0.06 0.05 0.04 0.03 0.02 0.02 0.01 0.02 0.02 0.02 0.01 0.01 0.01 0.02 0.03 0.03 0.03 0.03 0.04 0.04 0.03 0.03 0.02
0.03 0.03 0.04 0.03 0.03 0.03 0.03 0.03 0.03 0.03 0.04 0.04 0.04 0.03 0.02 0.02 0.02 0.02 0.03 0.03 0.03 0.03 0.03 0.03 0.02 0.02 0.02 0.01 0.01 0.01 0.01 0.01 0.01 0.02 0.03 0.02 0.02 0.02 0.02 0.03 0.03 0.03 0.03
0.03 0.02 0.02 0.03 0.03 0.02 0.02 0.03 0.03 0.02 0.02 0.03 0.04 0.04 0.04 0.04 0.04 0.03 0.03 0.02 0.02 0.03 0.03 0.03 0.02 0.02 0.01 0.01 0.01 0.01 0.01 0.01 0.01 0.02 0.02 0.01 0.01 0.02 0.01 0.02 0.02 0.04 0.06
0.02 0.02 0.02 0.02 0.02 0.01 0.01 0.02 0.02 0.02 0.03 0.03 0.03 0.04 0.06 0.07 0.05 0.03 0.03 0.03 0.03 0.03 0.03 0.03 0.02 0.01 0.00 0.00 0.00 0.00 0.00 0.00 0.00 0.01 0.01 0.01 0.01 0.01 0.01 0.01 0.01 0.04 0.06
0.01 0.01 0.01 0.03 0.02 0.02 0.01 0.02 0.02 0.02 0.03 0.03 0.03 0.03 0.06 0.09 0.05 0.03 0.03 0.04 0.03 0.02 0.03 0.03 0.01 0.01 0.00 0.00 0.01 0.01 0.00 0.00 0.00 0.01 0.02 0.01 0.01 0.01 0.01 0.01 0.01 0.02 0.03
0.01 0.02 0.01 0.01 0.02 0.02 0.02 0.02 0.02 0.02 0.03 0.03 0.03 0.03 0.06 0.09 0.04 0.03 0.04 0.03 0.02 0.02 0.02 0.01 0.01 0.01 0.00 0.00 0.01 0.01 0.00 0.00 0.01 0.02 0.03 0.01 0.01 0.01 0.01 0.01 0.02 0.02 0.01
0.01 0.01 0.01 0.01 0.02 0.02 0.02 0.03 0.03 0.03 0.03 0.04 0.03 0.03 0.05 0.05 0.03 0.03 0.02 0.04 0.03 0.03 0.03 0.02 0.01 0.01 0.01 0.01 0.01 0.01 0.01 0.01 0.01 0.02 0.03 0.01 0.01 0.01 0.01 0.02 0.02 0.02 0.01
0.01 0.01 0.01 0.02 0.02 0.03 0.03 0.03 0.04 0.04 0.04 0.04 0.03 0.05 0.05 0.03 0.03 0.02 0.03 0.03 0.05 0.05 0.04 0.03 0.02 0.01 0.01 0.01 0.01 0.03 0.03 0.01 0.01 0.02 0.02 0.01 0.01 0.01 0.01 0.01 0.02 0.02 0.01
0.03 0.02 0.02 0.02 0.03 0.04 0.05 0.05 0.05 0.03 0.05 0.05 0.05 0.04 0.03 0.03 0.02 0.02 0.03 0.03 0.04 0.06 0.05 0.04 0.03 0.01 0.01 0.01 0.01 0.03 0.04 0.02 0.01 0.01 0.01 0.01 0.01 0.01 0.01 0.01 0.01 0.01 0.01
0.02 0.02 0.02 0.02 0.04 0.05 0.06 0.06 0.04 0.03 0.04 0.05 0.04 0.04 0.03 0.02 0.02 0.02 0.02 0.02 0.03 0.03 0.03 0.05 0.05 0.03 0.01 0.01 0.01 0.02 0.04 0.02 0.01 0.01 0.01 0.00 0.01 0.01 0.01 0.00 0.00 0.00 0.01
0.02 0.01 0.02 0.02 0.04 0.06 0.07 0.06 0.03 0.03 0.03 0.03 0.03 0.02 0.01 0.01 0.02 0.02 0.02 0.02 0.02 0.02 0.02 0.03 0.02 0.01 0.01 0.01 0.01 0.01 0.01 0.01 0.01 0.01 0.00 0.00 0.00 0.00 0.00 0.00 0.00 0.01 0.01
0.01 0.02 0.02 0.03 0.04 0.05 0.05 0.03 0.02 0.03 0.03 0.03 0.04 0.03 0.02 0.01 0.01 0.01 0.01 0.01 0.01 0.02 0.03 0.03 0.02 0.01 0.01 0.00 0.00 0.00 0.01 0.01 0.01 0.00 0.00 0.00 0.00 0.00 0.00 0.00 0.01 0.01 0.01
0.01 0.02 0.03 0.03 0.04 0.03 0.02 0.02 0.02 0.02 0.03 0.04 0.04 0.03 0.03 0.02 0.01 0.01 0.01 0.01 0.01 0.02 0.03 0.02 0.01 0.01 0.01 0.01 0.01 0.01 0.01 0.01 0.00 0.01 0.00 0.00 0.00 0.01 0.01 0.01 0.01 0.01 0.01
0.02 0.02 0.02 0.02 0.03 0.02 0.02 0.02 0.02 0.02 0.02 0.04 0.05 0.03 0.03 0.02 0.01 0.01 0.01 0.01 0.02 0.01 0.02 0.02 0.02 0.02 0.01 0.01 0.01 0.01 0.01 0.01 0.01 0.01 0.01 0.01 0.01 0.01 0.01 0.01 0.02 0.01 0.01
MSLP
1011.41 1011.57 1011.82 1012.12 1012.43 1012.71 1012.95 1013.16 1013.32 1013.47 1013.63 1013.78 1013.95 1014.13 1014.29 1014.42 1014.52 1014.58 1014.61 1014.61 1014.63 1014.66 1014.72 1014.81 1014.93 1015.06 1015.17 1015.25 1015.28 1015.24 1015.14 1014.98 1014.77 1014.52 1014.23 1013.93 1013.60 1013.28 1012.96 1012.66 1012.41 1012.21 1012.10
1011.82 1012.07 1012.37 1012.66 1012.93 1013.14 1013.31 1013.44 1013.57 1013.71 1013.88 1014.07 1014.29 1014.50 1014.68 1014.82 1014.90 1014.92 1014.91 1014.88 1014.87 1014.88 1014.95 1015.05 1015.19 1015.32 1015.44 1015.51 1015.52 1015.47 1015.35 1015.18 1014.97 1014.74 1014.48 1014.21 1013.91 1013.60 1013.28 1012.96 1012.65 1012.38 1012.18
1012.21 1012.56 1012.91 1013.22 1013.44 1013.60 1013.69 1013.75 1013.83 1013.95 1014.12 1014.35 1014.60 1014.85 1015.07 1015.22 1015.30 1015.31 1015.27 1015.22 1015.18 1015.18 1015.23 1015.33 1015.46 1015.58 1015.69 1015.75 1015.74 1015.67 1015.55 1015.39 1015.21 1015.02 1014.81 1014.60 1014.36 1014.10 1013.79 1013.46 1013.11 1012.77 1012.47
1012.54 1012.99 1013.40 1013.73 1013.94 1014.04 1014.08 1014.08 1014.10 1014.19 1014.37 1014.61 1014.90 1015.19 1015.44 1015.62 1015.71 1015.72 1015.67 1015.59 1015.53 1015.51 1015.53 1015.61 1015.72 1015.82 1015.90 1015.93 1015.91 1015.83 1015.71 1015.57 1015.43 1015.29 1015.16 1015.02 1014.86 1014.65 1014.39 1014.06 1013.68 1013.28 1012.89
1012.79 1013.32 1013.80 1014.17 1014.38 1014.47 1014.46 1014.41 1014.40 1014.47 1014.63 1014.88 1015.19 1015.52 1015.80 1016.00 1016.11 1016.12 1016.07 1015.98 1015.89 1015.84 1015.83 1015.87 1015.94 1016.00 1016.05 1016.05 1016.00 1015.91 1015.79 1015.67 1015.57 1015.49 1015.43 1015.37 1015.28 1015.14 1014.93 1014.62 1014.24 1013.80 1013.34
1012.92 1013.54 1014.10 1014.51 1014.76 1014.85 1014.83 1014.76 1014.73 1014.77 1014.93 1015.18 1015.51 1015.84 1016.14 1016.37 1016.48 1016.50 1016.43 1016.33 1016.22 1016.13 1016.08 1016.08 1016.10 1016.12 1016.11 1016.07 1015.99 1015.88 1015.76 1015.65 1015.57 1015.54 1015.53 1015.54 1015.52 1015.45 1015.29 1015.02 1014.66 1014.20 1013.70
1012.94 1013.65 1014.28 1014.76 1015.07 1015.19 1015.19 1015.13 1015.09 1015.14 1015.28 1015.53 1015.85 1016.18 1016.48 1016.70 1016.81 1016.82 1016.75 1016.62 1016.48 1016.36 1016.28 1016.22 1016.19 1016.16 1016.10 1016.01 1015.89 1015.75 1015.61 1015.49 1015.42 1015.40 1015.42 1015.47 1015.51 1015.49 1015.39 1015.17 1014.84 1014.40 1013.89
1012.89 1013.67 1014.38 1014.94 1015.31 1015.50 1015.54 1015.52 1015.50 1015.54 1015.69 1015.92 1016.22 1016.53 1016.81 1017.00 1017.09 1017.08 1016.98 1016.83 1016.67 1016.51 1016.39 1016.29 1016.22 1016.13 1016.03 1015.89 1015.72 1015.54 1015.36 1015.21 1015.11 1015.08 1015.11 1015.17 1015.23 1015.25 1015.19 1015.03 1014.75 1014.37 1013.90
1012.81 1013.65 1014.44 1015.08 1015.53 1015.78 1015.89 1015.91 1015.93 1015.99 1016.13 1016.34 1016.60 1016.87 1017.10 1017.25 1017.30 1017.26 1017.13 1016.96 1016.77 1016.59 1016.44 1016.31 1016.19 1016.07 1015.92 1015.74 1015.52 1015.29 1015.06 1014.86 1014.72 1014.64 1014.63 1014.67 1014.73 1014.77 1014.75 1014.64 1014.43 1014.12 1013.72
1012.75 1013.66 1014.51 1015.21 1015.72 1016.04 1016.21 1016.29 1016.35 1016.43 1016.57 1016.76 1016.97 1017.19 1017.35 1017.44 1017.44 1017.35 1017.19 1016.99 1016.78 1016.59 1016.43 1016.29 1016.15 1016.01 1015.83 1015.60 1015.34 1015.05 1014.77 1014.51 1014.30 1014.16 1014.09 1014.08 1014.11 1014.14 1014.14 1014.08 1013.94 1013.71 1013.40
1012.78 1013.73 1014.61 1015.34 1015.90 1016.27 1016.50 1016.63 1016.73 1016.83 1016.96 1017.12 1017.29 1017.44 1017.53 1017.55 1017.48 1017.34 1017.15 1016.94 1016.73 1016.54 1016.39 1016.25 1016.12 1015.96 1015.77 1015.52 1015.22 1014.89 1014.54 1014.22 1013.94 1013.72 1013.58 1013.50 1013.48 1013.48 1013.48 1013.45 1013.36 1013.20 1012.99
1012.92 1013.87 1014.75 1015.48 1016.05 1016.44 1016.71 1016.88 1017.01 1017.13 1017.26 1017.39 1017.51 1017.59 1017.60 1017.55 1017.43 1017.25 1017.03 1016.82 1016.62 1016.46 1016.32 1016.21 1016.09 1015.95 1015.75 1015.50 1015.17 1014.81 1014.41 1014.03 1013.68 1013.39 1013.17 1013.02 1012.93 1012.89 1012.86 1012.83 1012.76 1012.66 1012.52
1013.14 1014.07 1014.91 1015.60 1016.14 1016.54 1016.81 1017.01 1017.16 1017.29 1017.42 1017.52 1017.59 1017.61 1017.56 1017.45 1017.27 1017.06 1016.84 1016.63 1016.46 1016.33 1016.24 1016.16 1016.08 1015.96 1015.77 1015.51 1015.18 1014.79 1014.36 1013.93 1013.52 1013.17 1012.88 1012.66 1012.50 1012.40 1012.32 1012.26 1012.19 1012.10 1011.99
1013.39 1014.27 1015.03 1015.66 1016.14 1016.51 1016.78 1016.99 1017.15 1017.30 1017.42 1017.50 1017.53 1017.50 1017.39 1017.23 1017.02 1016.79 1016.57 1016.39 1016.25 1016.17 1016.12 1016.09 1016.04 1015.95 1015.78 1015.53 1015.19 1014.79 1014.35 1013.89 1013.44 1013.04 1012.69 1012.41 1012.18 1012.00 1011.86 1011.74 1011.63 1011.51 1011.40
1013.60 1014.39 1015.05 1015.59 1016.01 1016.33 1016.59 1016.80 1016.99 1017.14 1017.26 1017.33 1017.33 1017.26 1017.12 1016.92 1016.69 1016.46 1016.25 1016.10 1016.00 1015.96 1015.97 1015.97 1015.96 1015.88 1015.73 1015.49 1015.16 1014.75 1014.30 1013.83 1013.37 1012.93 1012.55 1012.21 1011.92 1011.67 1011.45 1011.24 1011.06 1010.88 1010.71
1013.67 1014.36 1014.93 1015.37 1015.73 1016.01 1016.26 1016.48 1016.68 1016.85 1016.98 1017.04 1017.02 1016.93 1016.76 1016.54 1016.30 1016.08 1015.89 1015.77 1015.71 1015.72 1015.75 1015.79 1015.80 1015.74 1015.59 1015.35 1015.02 1014.62 1014.17 1013.70 1013.24 1012.79 1012.38 1012.01 1011.66 1011.34 1011.03 1010.74 1010.45 1010.18 1009.93
1013.56 1014.16 1014.63 1015.01 1015.31 1015.58 1015.83 1016.07 1016.29 1016.48 1016.62 1016.68 1016.66 1016.55 1016.37 1016.14 1015.90 1015.68 1015.52 1015.42 1015.40 1015.43 1015.49 1015.54 1015.55 1015.49 1015.34 1015.10 1014.77 1014.37 1013.93 1013.47 1013.01 1012.57 1012.15 1011.75 1011.37 1010.98 1010.59 1010.21 1009.82 1009.44 1009.10
1013.25 1013.77 1014.19 1014.52 1014.81 1015.08 1015.35 1015.62 1015.88 1016.09 1016.25 1016.32 1016.29 1016.17 1015.98 1015.75 1015.51 1015.31 1015.16 1015.09 1015.08 1015.13 1015.19 1015.24 1015.24 1015.17 1015.00 1014.74 1014.40 1014.01 1013.57 1013.13 1012.69 1012.27 1011.85 1011.44 1011.03 1010.59 1010.14 1009.67 1009.19 1008.72 1008.29
1012.79 1013.28 1013.67 1013.99 1014.29 1014.60 1014.91 1015.22 1015.51 1015.76 1015.93 1016.00 1015.97 1015.85 1015.65 1015.41 1015.18 1014.98 1014.85 1014.79 1014.79 1014.83 1014.89 1014.92 1014.90 1014.80 1014.60 1014.33 1013.98 1013.58 1013.16 1012.74 1012.32 1011.91 1011.51 1011.10 1010.68 1010.21 1009.72 1009.19 1008.64 1008.11 1007.61
1012.28 1012.76 1013.15 1013.50 1013.84 1014.19 1014.56 1014.91 1015.24 1015.51 1015.69 1015.77 1015.73 1015.60 1015.39 1015.16 1014.92 1014.73 1014.60 1014.54 1014.54 1014.57 1014.61 1014.62 1014.56 1014.43 1014.21 1013.92 1013.56 1013.16 1012.75 1012.35 1011.96 1011.57 1011.19 1010.79 1010.36 1009.89 1009.38 1008.82 1008.24 1007.67 1007.14
1011.82 1012.31 1012.73 1013.13 1013.52 1013.93 1014.34 1014.73 1015.09 1015.37 1015.56 1015.62 1015.57 1015.43 1015.22 1014.97 1014.74 1014.55 1014.42 1014.35 1014.34 1014.36 1014.37 1014.35 1014.26 1014.10 1013.86 1013.55 1013.19 1012.80 1012.41 1012.02 1011.65 1011.30 1010.93 1010.56 1010.14 1009.68 1009.17 1008.61 1008.04 1007.47 1006.94
1011.48 1012.00 1012.46 1012.91 1013.35 1013.80 1014.25 1014.67 1015.04 1015.32 1015.49 1015.54 1015.48 1015.32 1015.10 1014.85 1014.61 1014.42 1014.28 1014.21 1014.18 1014.18 1014.17 1014.12 1014.01 1013.82 1013.57 1013.25 1012.90 1012.52 1012.15 1011.79 1011.45 1011.11 1010.78 1010.42 1010.03 1009.60 1009.11 1008.59 1008.04 1007.51 1007.02
1011.31 1011.85 1012.35 1012.84 1013.32 1013.80 1014.26 1014.69 1015.04 1015.31 1015.46 1015.49 1015.41 1015.23 1015.00 1014.75 1014.51 1014.32 1014.18 1014.09 1014.05 1014.02 1013.98 1013.91 1013.78 1013.58 1013.32 1013.01 1012.67 1012.32 1011.97 1011.64 1011.32 1011.01 1010.71 1010.38 1010.02 1009.62 1009.17 1008.70 1008.22 1007.75 1007.33
1011.28 1011.84 1012.36 1012.86 1013.36 1013.84 1014.30 1014.71 1015.05 1015.29 1015.41 1015.42 1015.32 1015.14 1014.91 1014.66 1014.42 1014.22 1014.07 1013.97 1013.91 1013.85 1013.79 1013.69 1013.54 1013.34 1013.08 1012.79 1012.47 1012.14 1011.82 1011.52 1011.23 1010.95 1010.67 1010.37 1010.05 1009.69 1009.30 1008.89 1008.48 1008.09 1007.75
1011.34 1011.90 1012.42 1012.91 1013.40 1013.87 1014.30 1014.68 1014.99 1015.20 1015.30 1015.29 1015.19 1015.01 1014.79 1014.54 1014.31 1014.11 1013.95 1013.83 1013.74 1013.65 1013.55 1013.43 1013.26 1013.05 1012.80 1012.52 1012.22 1011.93 1011.64 1011.37 1011.11 1010.86 1010.60 1010.33 1010.04 1009.72 1009.39 1009.05 1008.71 1008.41 1008.15
1011.40 1011.93 1012.43 1012.90 1013.36 1013.80 1014.20 1014.55 1014.83 1015.02 1015.11 1015.10 1015.00 1014.84 1014.63 1014.40 1014.17 1013.97 1013.80 1013.65 1013.52 1013.40 1013.26 1013.10 1012.91 1012.69 1012.44 1012.16 1011.89 1011.62 1011.36 1011.11 1010.88 1010.65 1010.42 1010.18 1009.92 1009.65 1009.36 1009.08 1008.82 1008.60 1008.42
Thickness
5749 5748 5747 5744 5740 5736 5732 5728 5724 5720 5717 5712 5708 5703 5699 5696 5693 5691 5688 5685 5682 5680 5677 5674 5671 5669 5665 5663 5662 5660 5658 5656 5656 5652 5650 5652 5653 5653 5653 5653 5654 5654 5655
5741 5740 5739 5737 5733 5730 5726 5722 5719 5716 5713 5710 5706 5702 5697 5692 5689 5685 5682 5679 5676 5674 5671 5668 5665 5662 5658 5656 5655 5653 5650 5648 5647 5643 5639 5637 5639 5642 5645 5644 5645 5645 5646
5738 5736 5734 5731 5727 5723 5721 5719 5717 5713 5710 5707 5702 5696 5691 5686 5682 5678 5675 5673 5670 5667 5664 5661 5658 5655 5652 5649 5647 5646 5643 5639 5638 5636 5632 5627 5625 5628 5633 5634 5635 5636 5637
5737 5734 5730 5726 5723 5721 5719 5715 5712 5710 5706 5702 5697 5691 5684 5679 5675 5672 5669 5666 5664 5661 5658 5655 5652 5649 5646 5643 5641 5640 5636 5633 5629 5628 5627 5624 5622 5619 5619 5623 5626 5628 5629
5733 5730 5727 5724 5721 5718 5714 5710 5706 5703 5700 5697 5692 5686 5681 5676 5671 5666 5663 5659 5656 5654 5652 5648 5646 5643 5640 5637 5634 5632 5630 5627 5624 5621 5619 5618 5616 5614 5612 5612 5615 5618 5621
5729 5726 5723 5719 5714 5711 5707 5703 5700 5696 5693 5690 5686 5681 5676 5670 5665 5660 5656 5652 5649 5647 5645 5642 5639 5636 5634 5631 5628 5626 5623 5621 5619 5616 5614 5612 5609 5608 5606 5605 5606 5608 5612
5723 5719 5715 5712 5707 5704 5700 5696 5693 5688 5686 5683 5679 5676 5671 5666 5660 5655 5651 5646 5643 5640 5639 5637 5633 5630 5628 5625 5622 5620 5617 5615 5613 5611 5609 5607 5606 5605 5603 5601 5600 5601 5604
5716 5713 5710 5706 5702 5698 5694 5689 5686 5683 5679 5676 5673 5669 5665 5660 5655 5651 5646 5642 5638 5636 5634 5631 5628 5626 5623 5620 5617 5614 5612 5611 5609 5607 5605 5603 5602 5601 5599 5597 5595 5594 5595
5710 5706 5703 5700 5696 5692 5688 5685 5681 5677 5673 5670 5666 5662 5659 5654 5649 5645 5641 5637 5634 5632 5628 5625 5623 5621 5619 5616 5612 5609 5607 5606 5604 5602 5601 5599 5598 5597 5596 5594 5593 5589 5588
5702 5699 5696 5692 5689 5686 5683 5680 5677 5672 5669 5665 5661 5657 5653 5649 5644 5640 5636 5632 5629 5626 5623 5620 5618 5616 5613 5611 5607 5604 5603 5601 5599 5598 5596 5595 5593 5592 5591 5590 5589 5587 5585
5696 5693 5689 5685 5683 5680 5677 5673 5670 5666 5663 5660 5656 5652 5648 5643 5639 5635 5632 5628 5626 5622 5618 5616 5613 5611 5609 5606 5603 5600 5599 5596 5594 5593 5592 5590 5589 5587 5586 5585 5584 5582 5581
5692 5687 5683 5679 5676 5673 5671 5668 5664 5661 5658 5656 5651 5647 5643 5639 5634 5630 5628 5625 5621 5618 5615 5613 5610 5607 5605 5602 5599 5597 5595 5592 5590 5589 5587 5586 5585 5583 5581 5580 5578 5577 5577
5686 5682 5678 5674 5671 5668 5665 5662 5659 5656 5654 5650 5646 5641 5637 5634 5630 5627 5624 5621 5618 5615 5612 5610 5606 5604 5601 5598 5596 5593 5591 5588 5586 5585 5583 5581 5579 5577 5576 5575 5574 5573 5573
5680 5676 5673 5671 5668 5664 5661 5657 5654 5652 5649 5646 5642 5637 5633 5630 5627 5624 5621 5618 5616 5612 5609 5607 5604 5601 5598 5595 5592 5590 5587 5585 5583 5582 5580 5578 5576 5574 5573 5572 5570 5569 5568
5676 5673 5670 5666 5664 5660 5656 5653 5650 5648 5646 5642 5638 5634 5631 5628 5625 5622 5619 5616 5613 5611 5607 5604 5601 5598 5595 5592 5589 5586 5584 5581 5579 5578 5577 5576 5575 5573 5571 5569 5567 5565 5563
5675 5672 5668 5664 5661 5658 5654 5650 5647 5645 5642 5639 5635 5633 5630 5627 5623 5620 5617 5613 5610 5607 5604 5600 5597 5594 5592 5590 5587 5584 5581 5579 5576 5575 5574 5573 5572 5571 5570 5568 5566 5564 5561
5674 5670 5666 5663 5660 5656 5653 5648 5646 5643 5640 5637 5634 5632 5629 5626 5622 5620 5615 5611 5607 5604 5601 5598 5595 5592 5589 5588 5585 5583 5580 5577 5575 5573 5572 5571 5571 5568 5566 5565 5563 5561 5560
5672 5668 5665 5661 5658 5655 5651 5648 5644 5641 5638 5635 5632 5630 5627 5624 5621 5617 5613 5609 5606 5602 5599 5596 5594 5590 5588 5586 5584 5581 5578 5576 5574 5573 5571 5569 5567 5566 5564 5561 5560 5558 5558
5671 5667 5664 5660 5656 5653 5650 5646 5642 5639 5635 5633 5631 5629 5626 5622 5618 5615 5612 5608 5605 5601 5598 5595 5593 5590 5588 5586 5583 5581 5576 5574 5573 5572 5571 5568 5566 5565 5562 5559 5557 5556 5556
5669 5665 5662 5658 5654 5651 5648 5644 5640 5636 5634 5632 5630 5628 5625 5621 5617 5614 5611 5607 5604 5600 5598 5595 5593 5590 5587 5586 5583 5580 5575 5572 5571 5570 5569 5567 5565 5563 5561 5557 5555 5553 5554
5667 5664 5660 5656 5653 5650 5646 5641 5638 5635 5634 5633 5630 5627 5623 5620 5617 5613 5610 5607 5603 5599 5596 5594 5592 5589 5587 5586 5583 5580 5575 5572 5569 5568 5566 5565 5564 5562 5560 5557 5554 5554 5553
5664 5661 5656 5653 5650 5648 5644 5640 5636 5636 5634 5632 5629 5626 5623 5620 5618 5613 5609 5606 5602 5598 5595 5593 5591 5590 5588 5586 5584 5580 5577 5573 5569 5567 5566 5564 5563 5561 5559 5557 5556 5555 5552
5660 5658 5654 5650 5648 5646 5644 5639 5638 5637 5634 5630 5627 5625 5623 5620 5617 5613 5609 5605 5601 5597 5595 5592 5590 5589 5588 5586 5584 5581 5578 5574 5569 5567 5566 5564 5562 5560 5559 5559 5557 5555 5552
5658 5655 5652 5648 5646 5645 5644 5641 5640 5637 5633 5629 5625 5624 5621 5619 5616 5612 5609 5605 5602 5598 5596 5593 5590 5588 5587 5586 5584 5580 5577 5573 5570 5567 5565 5564 5563 5561 5560 5559 5558 5557 5554
5656 5653 5651 5648 5646 5644 5643 5642 5640 5636 5631 5628 5625 5622 5620 5618 5615 5612 5609 5607 5605 5602 5598 5595 5592 5588 5587 5587 5584 5579 5576 5572 5569 5565 5563 5562 5561 5559 5559 5559 5558 5558 5556
5655 5652 5650 5648 5646 5645 5642 5641 5639 5636 5631 5627 5624 5622 5619 5617 5615 5612 5610 5610 5607 5605 5602 5599 5594 5592 5590 5588 5584 5580 5576 5572 5569 5564 5561 5560 5559 5558 5558 5557 5557 5557 5556